Weather History for KDVO - September, 2013

Change the Weather History Date:

Saturday, September 21, 2013

  Actual Average (KAPC) Record (KAPC)
Temperature  
Mean Temperature 62 °F 64 °F  
Max Temperature 68 °F 79 °F 102 °F (2003)
Min Temperature 55 °F 48 °F 41 °F (2012)
Degree Days  
Heating Degree Days 4    
Month to date heating degree days  
Since 1 July heating degree days  
Cooling Degree Days 0    
Month to date cooling degree days  
Year to date cooling degree days  
Growing Degree Days 12 (Base 50)    
Moisture  
Dew Point 58 °F    
Average Humidity 87    
Maximum Humidity 100    
Minimum Humidity 56    
Precipitation  
Precipitation 0.15 in - 0.82 in (2013)
Month to date precipitation  
Year to date precipitation  
Since 1 July precipitation  
Sea Level Pressure  
Sea Level Pressure 29.83 in    
Wind  
Wind Speed 6 mph (WSW)    
Max Wind Speed 18 mph    
Max Gust Speed 25 mph    
Visibility 9 miles    
Events Rain    
T = Trace of Precipitation, MM = Missing Value Source: NWS Daily Summary

Daily Weather History Graph

Daily Weather History Graph

Search for Another Location

Airport or City:

Trip Planner

Search our weather history database for the weather conditions in past years. The results will help you decide how hot, cold, wet, or windy it might be!

Date:

Astronomy

Sep. 21, 2013 Rise Set
Actual Time 6:57 AM PDT 7:08 PM PDT
Civil Twilight 6:31 AM PDT 7:34 PM PDT
Nautical Twilight 6:00 AM PDT 8:05 PM PDT
Astronomical Twilight 5:28 AM PDT 8:36 PM PDT
Moon 8:25 PM PDT (9/21) 9:18 AM PDT (9/21)
Length of Visible Light 13h 03m
Length of Day
12h 10m
Waning Gibbous, 94% of the Moon is Illuminated
Sep 21
Waning Gibbous
Sep 26
Last Quarter
Oct 4
New
Oct 11
First Quarter
Oct 18
Full

Hourly Weather History & Observations

Time (PDT) Temp. Dew Point Humidity Pressure Visibility Wind Dir Wind Speed Gust Speed Precip Events Conditions
12:15 AM 64.4 °F 62.6 °F 94% 29.83 in 7.0 mi SW 4.6 mph - N/A   Mostly Cloudy
12:35 AM 64.4 °F 64.4 °F 100% 29.83 in 2.5 mi SW 4.6 mph - N/A Rain Light Rain
12:55 AM 62.6 °F 62.6 °F 100% 29.82 in 7.0 mi SW 4.6 mph - N/A   Unknown
1:15 AM 62.6 °F 62.6 °F 100% 29.82 in 10.0 mi South 5.8 mph - N/A   Unknown
1:35 AM 62.6 °F 62.6 °F 100% 29.82 in 10.0 mi South 9.2 mph - N/A   Unknown
1:55 AM 62.6 °F 62.6 °F 100% 29.82 in 2.0 mi South 6.9 mph - N/A Rain Light Rain
2:15 AM 62.6 °F 62.6 °F 100% 29.82 in 3.0 mi South 5.8 mph - N/A   Mist
2:35 AM 62.6 °F 62.6 °F 100% 29.82 in 3.0 mi South 5.8 mph - N/A Rain Light Rain
2:55 AM 62.6 °F 62.6 °F 100% 29.82 in 10.0 mi SW 4.6 mph - N/A   Overcast
3:15 AM 62.6 °F 62.6 °F 100% 29.82 in 10.0 mi West 4.6 mph - N/A   Mostly Cloudy
3:35 AM 62.6 °F 62.6 °F 100% 29.81 in 10.0 mi SW 6.9 mph - N/A   Overcast
3:55 AM 62.6 °F 62.6 °F 100% 29.81 in 10.0 mi Calm Calm - N/A   Mostly Cloudy
4:15 AM 62.6 °F 62.6 °F 100% 29.82 in 10.0 mi Calm Calm - N/A   Overcast
4:35 AM 62.6 °F 62.6 °F 100% 29.81 in 10.0 mi SW 5.8 mph - N/A   Mostly Cloudy
4:55 AM 62.6 °F 62.6 °F 100% 29.81 in 10.0 mi SSW 5.8 mph - N/A   Clear
5:15 AM 60.8 °F 60.8 °F 100% 29.81 in 10.0 mi Calm Calm - N/A   Clear
5:35 AM 59.0 °F 59.0 °F 100% 29.81 in 10.0 mi Calm Calm - N/A   Clear
5:55 AM 59.0 °F 59.0 °F 100% 29.81 in 10.0 mi Calm Calm - N/A   Clear
6:15 AM 59.0 °F 59.0 °F 100% 29.81 in 10.0 mi WSW 4.6 mph - N/A   Clear
6:35 AM 59.0 °F 59.0 °F 100% 29.81 in 10.0 mi Calm Calm - N/A   Clear
6:55 AM 59.0 °F 59.0 °F 100% 29.81 in 10.0 mi South 4.6 mph - N/A   Partly Cloudy
7:15 AM 59.0 °F 59.0 °F 100% 29.81 in 10.0 mi South 3.5 mph - N/A   Scattered Clouds
7:35 AM 59.0 °F 59.0 °F 100% 29.81 in 10.0 mi Calm Calm - N/A   Mostly Cloudy
7:55 AM 60.8 °F 60.8 °F 100% 29.81 in 10.0 mi Calm Calm - N/A   Mostly Cloudy
8:15 AM 60.8 °F 60.8 °F 100% 29.82 in 1.2 mi Calm Calm - 0.01 in Rain Light Rain
8:35 AM 59.0 °F 59.0 °F 100% 29.82 in 0.8 mi Calm Calm - 0.04 in Rain Light Rain
8:55 AM 59.0 °F 59.0 °F 100% 29.82 in 10.0 mi Calm Calm - 0.04 in   Mostly Cloudy
9:15 AM 60.8 °F 60.8 °F 100% 29.82 in 1.0 mi Calm Calm - 0.02 in Rain Light Rain
9:35 AM 60.8 °F 60.8 °F 100% 29.82 in 10.0 mi Calm Calm - 0.02 in   Unknown
9:55 AM 62.6 °F 62.6 °F 100% 29.83 in 9.0 mi Calm Calm - 0.02 in Rain Light Rain
10:15 AM 62.6 °F 62.6 °F 100% 29.83 in 3.0 mi SSW 3.5 mph - N/A Rain Light Rain
10:35 AM 62.6 °F 62.6 °F 100% 29.83 in 2.0 mi SW 3.5 mph - 0.02 in Rain Light Rain
10:55 AM 62.6 °F 62.6 °F 100% 29.83 in 2.5 mi WSW 4.6 mph - 0.03 in Rain Light Rain
11:15 AM 62.6 °F 62.6 °F 100% 29.84 in 1.0 mi SW 4.6 mph - 0.04 in Rain Rain
11:35 AM 62.6 °F 62.6 °F 100% 29.83 in 3.0 mi SW 8.1 mph - 0.06 in Rain Light Rain
11:55 AM 62.6 °F 62.6 °F 100% 29.83 in 10.0 mi SW 10.4 mph - 0.06 in   Mostly Cloudy
12:15 PM 64.4 °F 62.6 °F 94% 29.83 in 10.0 mi WSW 8.1 mph - N/A   Mostly Cloudy
12:35 PM 66.2 °F 59.0 °F 78% 29.84 in 10.0 mi SW 9.2 mph - N/A   Mostly Cloudy
12:55 PM 66.2 °F 59.0 °F 78% 29.84 in 10.0 mi WSW 10.4 mph - N/A   Overcast
1:15 PM 66.2 °F 59.0 °F 78% 29.84 in 10.0 mi WSW 11.5 mph - N/A   Mostly Cloudy
1:35 PM 66.2 °F 55.4 °F 68% 29.83 in 10.0 mi WSW 9.2 mph - N/A   Scattered Clouds
1:55 PM 66.2 °F 55.4 °F 68% 29.83 in 10.0 mi West 8.1 mph 19.6 mph N/A   Scattered Clouds
2:15 PM 66.2 °F 57.2 °F 73% 29.82 in 10.0 mi West 6.9 mph - N/A   Mostly Cloudy
2:35 PM 68.0 °F 57.2 °F 68% 29.81 in 10.0 mi WSW 15.0 mph 20.7 mph N/A   Scattered Clouds
2:55 PM 68.0 °F 53.6 °F 60% 29.81 in 10.0 mi WSW 13.8 mph 21.9 mph N/A   Clear
3:15 PM 68.0 °F 53.6 °F 60% 29.81 in 10.0 mi SW 15.0 mph 20.7 mph N/A   Clear
3:35 PM 68.0 °F 53.6 °F 60% 29.82 in 10.0 mi West 11.5 mph 20.7 mph N/A   Clear
3:55 PM 68.0 °F 53.6 °F 60% 29.82 in 10.0 mi WSW 12.7 mph 20.7 mph N/A   Partly Cloudy
4:15 PM 68.0 °F 55.4 °F 64% 29.82 in 10.0 mi West 10.4 mph 18.4 mph N/A   Mostly Cloudy
4:35 PM 68.0 °F 53.6 °F 60% 29.82 in 10.0 mi WNW 12.7 mph 16.1 mph N/A   Mostly Cloudy
4:55 PM 66.2 °F 53.6 °F 64% 29.83 in 10.0 mi WNW 13.8 mph 18.4 mph N/A   Mostly Cloudy
5:15 PM 66.2 °F 50.0 °F 56% 29.83 in 10.0 mi WNW 10.4 mph 21.9 mph N/A   Clear
5:35 PM 66.2 °F 51.8 °F 60% 29.82 in 10.0 mi West 12.7 mph 21.9 mph N/A   Clear
5:55 PM 64.4 °F 53.6 °F 68% 29.82 in 10.0 mi WNW 12.7 mph 17.3 mph N/A   Clear
6:15 PM 64.4 °F 53.6 °F 68% 29.83 in 10.0 mi West 16.1 mph 25.3 mph N/A   Clear
6:35 PM 64.4 °F 53.6 °F 68% 29.83 in 10.0 mi West 6.9 mph - N/A   Clear
6:55 PM 62.6 °F 53.6 °F 72% 29.83 in 10.0 mi West 11.5 mph 18.4 mph N/A   Clear
7:15 PM 62.6 °F 53.6 °F 72% 29.84 in 10.0 mi West 11.5 mph 18.4 mph N/A   Clear
7:35 PM 62.6 °F 55.4 °F 77% 29.84 in 10.0 mi West 10.4 mph - N/A   Clear
7:55 PM 60.8 °F 53.6 °F 77% 29.84 in 10.0 mi West 12.7 mph 21.9 mph N/A   Clear
8:15 PM 60.8 °F 53.6 °F 77% 29.85 in 10.0 mi West 18.4 mph 25.3 mph N/A   Clear
8:35 PM 62.6 °F 53.6 °F 72% 29.87 in 10.0 mi West 15.0 mph 21.9 mph N/A   Clear
8:55 PM 60.8 °F 53.6 °F 77% 29.88 in 10.0 mi West 11.5 mph 18.4 mph N/A   Clear
9:15 PM 60.8 °F 53.6 °F 77% 29.88 in 10.0 mi West 11.5 mph 20.7 mph N/A   Clear
9:35 PM 60.8 °F 53.6 °F 77% 29.88 in 10.0 mi WNW 9.2 mph 16.1 mph N/A   Clear
9:55 PM 60.8 °F 53.6 °F 77% 29.88 in 10.0 mi NW 5.8 mph - N/A   Clear
10:15 PM 57.2 °F 53.6 °F 88% 29.89 in 10.0 mi WNW 9.2 mph - N/A   Clear
10:35 PM 55.4 °F 55.4 °F 100% 29.89 in 10.0 mi Calm Calm - N/A   Clear
10:55 PM 55.4 °F 55.4 °F 100% 29.90 in 10.0 mi NNW 3.5 mph - N/A   Clear
11:15 PM 55.4 °F 55.4 °F 100% 29.90 in 10.0 mi Calm Calm - N/A   Clear
11:35 PM 55.4 °F 55.4 °F 100% 29.91 in 10.0 mi Calm Calm - N/A   Clear
11:55 PM 55.4 °F 55.4 °F 100% 29.91 in 10.0 mi NNE 4.6 mph - N/A   Clear